Location: Eekst
(53.0191°N, 6.7366°E)
Time: 08:16:16
(UTC+00:00)

Cosmos 2219 Rocket - Pass Details

Date: 15 May 2026
Orbit: 826 x 846 km, 71.0° (Epoch: 5 June)

Event Time Altitude Azimuth Distance (km) Brightness Sun altitude
Rises 21:56:51 0° 325° (NW) 3,406 7.0 -15.2°
Reaches altitude 10° 21:59:22 10° 320° (NW) 2,470 5.8 -15.3°
Maximum altitude 22:04:44 45° 249° (WSW) 1,134 2.8 -15.6°
Enters shadow 22:08:12 21° 187° (S) 1,813 3.4 -15.8°
